This demonstration page uses our WeatherBlox Daily Observations layout. Learn more.

Left ArrowRight Arrow

38.88101, -77.10428

Hourly Observations for January 13, 2021

Temp ( °F °C ) Dew Point ( °F °C ) Humidity (%) Winds ( mph kmh ) Pressure ( in mb ) Visibility ( mi km ) Precip ( " mm )
12:52 am 00:52 Partly Cloudy 34 1.1 28 -2.2 79 79 Calm 30.11 1020 10 16 0.00 0.00
1:52 am 01:52 Mostly Cloudy 32 0 27 -2.8 82 82 Calm 30.12 1020 10 16 0.00 0.00
2:52 am 02:52 Mostly Cloudy 32 0 28 -2.2 85 85 SSW 3 6 30.12 1020 9 14 0.00 0.00
3:52 am 03:52 Mostly Cloudy 31 -0.6 26 -3.3 82 82 Calm 30.11 1020 10 16 0.00 0.00
4:52 am 04:52 Mostly Clear 31 -0.6 27 -2.8 85 85 Calm 30.11 1020 10 16 0.00 0.00
5:52 am 05:52 Mostly Clear 32 0 27 -2.8 82 82 Calm 30.12 1020 10 16 0.00 0.00
6:52 am 06:52 Mostly Clear 31 -0.6 26 -3.3 82 82 NNE 5 7 30.12 1020 10 16 0.00 0.00
7:52 am 07:52 Mostly Sunny 31 -0.6 27 -2.8 85 85 Calm 30.12 1020 7 11 0.00 0.00
8:52 am 08:52 Partly Cloudy 35 1.7 29 -1.7 78 78 Calm 30.13 1020 10 16 0.00 0.00
9:52 am 09:52 Mostly Cloudy 41 5 32 0 70 70 Calm 30.12 1020 10 16 0.00 0.00
10:52 am 10:52 Partly Cloudy 42 5.6 30 -1.1 62 62 S 3 6 30.10 1019 9 14 0.00 0.00
11:52 am 11:52 Mostly Sunny 48 8.9 30 -1.1 50 50 VRB 5 7 30.05 1018 10 16 0.00 0.00
12:52 pm 12:52 Mostly Sunny 49 9.4 33 0.6 55 55 S 8 13 30.01 1016 10 16 0.00 0.00
1:52 pm 13:52 Mostly Sunny 50 10 33 0.6 52 52 S 7 11 29.98 1015 10 16 0.00 0.00
2:52 pm 14:52 Mostly Sunny 50 10 33 0.6 52 52 S 10 17 29.96 1014 10 16 0.00 0.00
3:52 pm 15:52 Partly Cloudy 50 10 33 0.6 52 52 S 7 11 29.95 1014 10 16 0.00 0.00
4:52 pm 16:52 Partly Cloudy 47 8.3 30 -1.1 52 52 SSW 7 11 29.94 1014 10 16 0.00 0.00
5:52 pm 17:52 Mostly Clear 47 8.3 32 0 56 56 S 5 7 29.94 1014 10 16 0.00 0.00
6:52 pm 18:52 Mostly Clear 45 7.2 33 0.6 63 63 SSW 5 7 29.94 1014 10 16 0.00 0.00
7:52 pm 19:52 Mostly Clear 41 5 33 0.6 73 73 S 7 11 29.93 1014 10 16 0.00 0.00
8:52 pm 20:52 Mostly Clear 41 5 34 1.1 76 76 Calm 29.92 1013 10 16 0.00 0.00
9:52 pm 21:52 Mostly Clear 38 3.3 34 1.1 86 86 Calm 29.91 1013 10 16 0.00 0.00
10:52 pm 22:52 Mostly Clear 38 3.3 33 0.6 83 83 Calm 29.90 1012 10 16 0.00 0.00
11:52 pm 23:52 Mostly Clear 36 2.2 33 0.6 89 89 N 3 6 29.87 1012 8 13 0.00 0.00

Powered by AerisWeather